This demonstration page uses our WeatherBlox Daily Observations layout. Learn more.

Left ArrowRight Arrow

41.86663, -103.66717

Hourly Observations for June 30, 2020

Temp ( °F °C ) Dew Point ( °F °C ) Humidity (%) Winds ( mph kmh ) Pressure ( in mb ) Visibility ( mi km ) Precip ( " mm )
12:06 am 00:06 Clear 75 24 54 12 47 47 NNW 23 37 29.37 995 10 16 0.00 0.00
12:53 am 00:53 Clear 72 22.2 48 8.9 43 43 WNW 16 26 29.45 997 10 16 0.00 0.00
1:53 am 01:53 Clear 69 20.6 47 8.3 45 45 WNW 13 20 29.49 999 10 16 0.00 0.00
2:53 am 02:53 Partly Cloudy 66 18.9 53 11.7 63 63 NW 17 28 29.54 1000 10 16 0.00 0.00
3:53 am 03:53 Cloudy 67 19.4 42 5.6 41 41 NW 21 33 29.57 1001 10 16 0.00 0.00
4:53 am 04:53 Cloudy 66 18.9 38 3.3 36 36 NW 22 35 29.61 1003 10 16 0.00 0.00
5:53 am 05:53 Cloudy 65 18.3 39 3.9 39 39 NW 22 35 29.64 1004 10 16 0.00 0.00
6:53 am 06:53 Cloudy 65 18.3 41 5 42 42 WNW 23 37 29.66 1004 10 16 0.00 0.00
7:53 am 07:53 Mostly Cloudy 66 18.9 41 5 40 40 WNW 18 30 29.68 1005 10 16 0.00 0.00
8:53 am 08:53 Cloudy 69 20.6 42 5.6 38 38 NW 21 33 29.68 1005 10 16 0.00 0.00
9:53 am 09:53 Cloudy 72 22.2 41 5 33 33 WNW 20 31 29.69 1005 10 16 0.00 0.00
10:53 am 10:53 Cloudy 73 22.8 39 3.9 29 29 WNW 18 30 29.70 1006 10 16 0.00 0.00
11:53 am 11:53 Cloudy 73 22.8 36 2.2 26 26 WNW 17 28 29.73 1007 10 16 0.00 0.00
12:53 pm 12:53 Cloudy 73 22.8 34 1.1 24 24 WNW 20 31 29.76 1008 10 16 0.00 0.00
1:53 pm 13:53 Partly Cloudy 75 23.9 34 1.1 22 22 WNW 14 22 29.75 1008 10 16 0.00 0.00
2:53 pm 14:53 Mostly Sunny 76 24.4 34 1.1 22 22 NW 13 20 29.76 1008 10 16 0.00 0.00
3:53 pm 15:53 Sunny 78 25.6 31 -0.6 18 18 VRB 5 7 29.74 1007 10 16 0.00 0.00
4:53 pm 16:53 Sunny 80 26.7 33 0.6 18 18 W 7 11 29.73 1007 10 16 0.00 0.00
5:53 pm 17:53 Sunny 81 27.2 33 0.6 18 18 undefined N/A 29.74 1007 10 16 0.00 0.00
6:53 pm 18:53 Sunny 80 26.7 34 1.1 19 19 NNW 5 7 29.74 1007 10 16 0.00 0.00
7:53 pm 19:53 Sunny 75 23.9 40 4.4 28 28 WNW 6 9 29.76 1008 10 16 0.00 0.00
8:53 pm 20:53 Clear 69 20.6 40 4.4 35 35 NW 9 15 29.79 1009 10 16 0.00 0.00
9:53 pm 21:53 Clear 63 17.2 41 5 45 45 WSW 3 6 29.84 1010 10 16 0.00 0.00
10:53 pm 22:53 Clear 59 15 45 7.2 60 60 N 6 9 29.86 1011 10 16 0.00 0.00
11:53 pm 23:53 Clear 64 17.8 40 4.4 41 41 NW 5 7 29.84 1011 10 16 0.00 0.00

Powered by AerisWeather